Temp
6 6 6 7 7 7 7 9 9 8 9 9 11 11 13 15 17 16 16 16 18 18 19 19 18 18 20 20 20 18 20 18 17 19 21 22 21 20 20 18 18 18 17 16
5 6 6 6 7 7 7 9 8 8 9 9 11 13 13 16 15 16 16 16 17 18 17 17 17 18 20 20 19 17 18 17 15 17 19 20 19 20 20 20 19 17 15 16
5 5 6 6 6 6 7 8 6 8 8 12 13 13 14 14 14 15 16 16 17 16 16 17 17 17 18 18 18 13 15 15 15 14 16 17 17 18 19 19 15 15 15 15
4 6 6 6 5 6 7 9 9 10 7 9 12 14 14 14 13 14 15 15 15 15 15 16 16 17 17 17 16 16 15 14 15 15 16 17 17 17 18 17 18 16 17 18
4 5 5 5 5 5 6 7 10 11 13 11 10 12 13 14 15 14 13 14 15 15 15 15 15 17 17 16 17 16 16 13 14 14 16 16 16 17 18 18 18 18 18 18
4 4 5 5 5 4 7 10 11 13 11 11 10 10 12 13 15 15 15 15 15 15 16 15 15 14 14 14 14 14 14 14 14 13 15 15 13 15 17 18 18 18 17 18
3 4 4 4 4 4 8 11 12 12 10 11 10 12 12 13 14 14 15 15 14 16 14 14 14 14 14 14 14 14 13 13 13 12 13 11 15 18 18 16 18 16 18 17
3 4 5 5 4 4 6 11 11 11 10 11 11 12 12 14 14 13 14 14 15 15 12 11 11 12 13 13 14 14 14 12 10 10 12 14 15 18 18 14 14 13 18 18
3 3 4 5 4 4 6 9 10 11 11 12 13 12 12 12 12 13 13 14 14 14 8 8 10 11 14 15 15 16 15 13 10 12 11 12 16 16 14 17 14 17 17 17
2 3 4 5 4 4 6 7 8 9 10 14 14 13 13 13 13 12 13 13 12 13 8 8 10 11 14 13 14 14 13 12 11 11 11 14 17 18 17 13 14 16 15 16
3 3 4 4 4 4 5 7 7 9 9 11 12 13 13 13 13 12 13 11 9 8 8 8 11 12 14 15 16 14 12 12 12 12 12 11 17 17 12 14 15 14 14 15
3 3 4 4 4 4 6 6 7 7 8 10 9 10 10 11 11 11 10 10 8 9 8 10 12 12 13 14 13 16 12 14 14 14 14 12 12 12 15 15 15 14 14 13
3 4 4 4 4 5 6 6 6 7 8 9 9 9 10 10 10 10 8 11 11 9 10 9 10 11 14 12 13 14 14 15 12 12 16 17 17 15 15 15 14 14 14 12
4 4 4 4 4 6 6 6 6 7 8 7 9 10 10 10 10 10 10 10 10 10 10 9 8 10 13 12 13 13 14 12 13 13 15 16 16 16 16 14 13 14 14 12
4 4 4 5 6 5 5 5 6 6 8 6 7 9 10 10 10 10 10 10 10 9 8 7 8 11 11 12 13 12 14 14 13 12 13 14 15 15 16 14 13 13 12 11
4 4 5 5 6 5 5 4 4 5 5 6 7 10 11 11 11 10 10 10 9 9 6 6 7 9 9 9 11 14 15 14 14 14 12 13 14 14 15 14 13 13 12 12
4 5 5 5 4 4 3 4 5 5 5 5 6 9 10 10 10 10 8 9 7 8 5 5 6 7 7 7 9 12 13 15 14 14 13 13 13 13 13 13 13 12 12 11
4 4 4 4 4 3 4 4 4 4 4 5 6 9 8 7 7 7 6 6 5 4 5 5 6 8 7 8 10 13 14 13 14 14 14 13 13 12 12 13 12 11 11 10
4 4 4 3 3 3 4 4 4 3 4 4 5 7 9 5 5 4 4 5 6 5 6 7 8 8 8 9 12 12 12 12 13 13 12 12 11 11 11 11 11 10 9 9
3 3 2 2 2 3 4 3 3 3 3 3 4 9 8 5 5 5 5 5 6 7 8 9 8 10 13 12 11 12 11 11 12 11 10 11 10 10 10 10 10 10 9 8
4 3 2 2 3 3 3 4 4 4 4 4 6 8 8 5 6 6 5 7 7 9 9 9 10 11 9 10 10 10 10 11 11 12 11 11 11 10 9 9 9 9 8 6
5 3 2 2 2 4 4 5 6 5 7 7 7 8 7 5 5 5 6 7 8 8 11 10 10 8 9 8 8 9 9 9 10 9 10 9 10 10 9 9 8 8 7 6
4 3 2 4 4 5 5 6 8 8 7 5 5 5 5 5 6 5 6 6 8 11 9 9 8 7 6 6 6 7 8 7 8 7 5 4 4 5 7 4 5 4 3 3
3 3 4 4 5 6 8 6 5 6 7 7 7 5 6 5 6 5 6 7 9 8 8 9 5 5 4 4 4 6 4 1 2 1 0 -0 -0 -0 1 2 3 2 0 0
3 3 5 5 6 6 5 6 6 5 6 5 5 5 6 6 5 6 8 7 8 9 8 5 4 3 3 3 2 2 2 0 1 1 -1 -1 0 -0 -1 -1 1 1 -0 -1
4 5 4 5 5 5 4 4 4 5 4 5 6 7 6 7 8 8 8 9 9 6 4 3 3 2 2 1 1 0 -0 1 1 0 0 -1 -0 0 -1 -1 -1 -1 -1 -1
5 4 4 4 4 4 4 3 4 5 5 6 7 8 8 9 9 8 6 5 4 3 2 2 1 1 0 0 0 -0 0 0 1 0 -0 -1 -1 -1 -1 -1 -2 -1 -1 -1
Height
773 773 776 783 787 793 800 797 797 799 802 808 800 795 787 781 774 780 780 776 767 769 765 768 772 773 768 767 769 778 771 778 782 772 756 752 755 759 758 772 771 766 768 770
767 768 771 777 782 787 793 788 798 799 800 797 789 785 785 778 781 779 779 777 772 769 773 780 776 773 766 767 774 781 779 781 788 776 763 753 759 756 755 754 756 765 773 765
761 762 761 771 779 783 788 787 797 798 797 785 778 778 778 778 782 780 779 777 775 777 779 776 776 777 771 772 777 788 788 788 791 790 777 771 770 762 759 758 772 773 767 766
757 759 757 764 771 780 783 776 778 781 788 785 778 773 771 773 779 785 780 780 779 777 781 778 777 774 774 772 778 783 788 791 789 779 774 772 767 764 761 759 753 760 750 746
753 754 754 759 766 777 777 775 771 771 764 776 782 775 770 766 768 777 784 780 772 774 778 777 776 769 770 772 769 774 780 786 785 774 773 767 762 754 748 745 743 742 742 735
747 750 753 755 762 774 769 766 767 763 767 771 780 774 770 767 768 766 769 770 774 772 773 774 775 778 781 782 782 782 782 779 781 769 770 763 764 755 747 740 736 736 740 731
741 744 747 748 757 765 766 763 761 760 763 762 772 768 772 768 765 770 767 772 773 772 777 781 780 779 778 777 779 781 783 782 780 773 773 779 749 737 734 737 732 734 730 729
734 737 741 744 752 762 765 763 763 762 760 760 766 766 765 764 768 772 771 771 773 774 782 789 785 776 774 768 767 768 771 780 788 784 771 756 746 732 731 743 741 742 723 720
727 731 735 739 747 757 765 763 761 760 758 750 751 759 765 766 767 770 773 772 772 776 795 797 790 775 757 750 747 747 758 770 785 773 771 756 734 736 738 732 740 725 725 725
718 723 729 735 743 753 762 762 762 762 758 745 748 751 756 762 762 765 763 764 772 774 793 794 783 769 757 751 746 751 758 766 773 770 768 746 731 725 730 747 742 731 732 728
709 715 722 728 738 750 759 761 762 763 760 755 753 753 754 757 758 762 762 770 778 787 788 789 771 758 745 738 735 741 754 759 756 759 759 756 728 726 745 734 731 735 735 732
700 707 716 723 734 746 758 759 761 763 765 760 761 760 761 761 766 764 770 770 777 778 784 773 758 752 745 739 744 731 748 740 740 739 737 737 736 736 736 733 733 736 737 739
691 693 707 720 733 744 753 758 761 764 764 762 761 761 762 762 766 770 775 767 771 776 776 774 767 755 744 744 737 732 735 733 740 746 725 723 721 727 730 734 735 734 736 744
685 696 708 721 735 743 751 758 761 762 763 763 756 755 757 759 762 766 769 770 771 772 774 775 774 764 747 744 739 738 734 738 734 733 726 723 723 727 724 730 735 734 736 743
686 700 712 724 734 743 753 760 761 762 764 764 761 757 755 755 758 759 763 766 767 770 775 777 771 760 757 745 739 737 730 728 731 732 727 727 725 725 724 729 733 735 739 744
692 704 716 727 737 747 755 761 762 762 765 766 762 752 747 749 752 755 757 760 763 767 773 773 771 765 766 757 741 729 724 726 725 721 724 726 724 725 723 727 732 735 739 743
698 710 721 732 741 748 754 757 756 759 765 768 764 747 745 747 748 752 755 757 761 763 769 769 769 765 765 761 748 732 729 724 724 721 723 726 727 725 726 728 731 736 740 745
706 717 727 736 743 749 754 756 756 760 765 767 760 742 745 750 752 754 756 758 761 764 764 766 760 757 758 751 737 728 722 723 722 723 723 724 726 727 728 729 733 738 743 748
714 723 732 740 745 750 754 757 759 760 765 762 759 746 735 752 753 755 758 757 756 759 756 753 752 745 744 735 726 725 726 726 724 724 726 726 728 729 730 732 737 740 746 750
720 729 737 744 747 750 754 760 762 761 760 760 755 740 739 749 751 751 753 752 747 742 741 740 741 728 721 726 730 729 729 729 726 726 729 729 730 732 733 735 739 742 747 752
723 733 740 745 748 752 756 756 755 754 752 750 740 732 735 747 744 744 745 738 736 727 728 728 724 721 732 732 733 732 731 730 727 727 728 727 727 731 734 736 739 743 748 753
726 731 741 746 749 749 749 744 741 742 728 727 725 726 731 743 745 743 741 732 729 726 720 724 721 734 734 736 736 734 733 732 729 731 730 731 730 730 733 737 740 743 748 752
728 734 741 742 743 739 736 727 718 718 720 726 728 731 735 740 741 742 737 736 731 719 725 722 730 737 741 742 741 738 736 736 735 737 738 736 735 734 735 738 742 746 750 754
732 736 737 735 731 725 715 720 724 721 716 719 723 731 733 737 737 739 734 733 723 724 724 719 742 746 746 746 745 741 743 745 744 745 744 743 742 741 741 742 745 748 753 757
734 735 724 725 722 721 723 724 723 721 720 725 727 728 729 731 737 731 726 732 723 716 719 739 747 750 750 749 749 748 747 748 748 747 746 746 746 747 748 749 750 752 755 759
734 729 729 723 723 723 725 725 724 721 722 724 724 722 723 724 718 719 719 713 710 732 743 750 750 752 753 752 751 752 751 750 750 750 749 749 748 749 751 753 754 756 758 760
728 728 729 729 726 726 726 727 725 722 723 721 718 715 712 713 711 715 727 733 744 749 752 754 755 756 755 754 753 753 752 752 752 752 752 752 752 753 753 755 756 758 759 761
Wind_Speed
20 25 30 32 28 25 27 7 4 14 19 6 6 11 17 14 5 5 5 5 6 9 9 6 9 12 8 3 3 8 9 5 10 15 14 16 15 17 17 12 16 12 12 12
24 25 37 34 32 32 22 5 2 8 16 7 10 13 20 15 9 9 5 5 4 3 7 5 10 13 10 2 5 2 6 4 8 10 12 17 14 17 19 13 13 18 12 14
25 20 43 35 35 35 23 5 3 3 5 11 15 15 16 18 7 10 13 7 10 7 12 11 6 6 4 3 3 9 2 9 12 12 13 16 21 22 22 18 8 14 15 15
23 27 40 38 40 38 23 3 5 8 7 12 16 15 14 18 13 10 11 9 15 12 9 12 14 14 13 8 10 6 5 15 15 20 21 21 23 24 23 21 21 19 19 20
23 25 38 37 40 40 18 4 4 8 6 16 16 14 15 17 15 11 14 17 12 13 14 13 10 6 8 7 6 9 11 16 15 24 20 21 25 25 24 24 23 23 22 24
22 27 32 41 43 43 13 18 17 8 5 13 11 15 17 16 14 15 15 10 13 9 7 6 8 7 6 8 9 11 14 13 14 23 16 17 16 11 18 21 21 19 17 15
24 28 27 42 46 50 24 20 11 5 6 9 13 13 19 21 12 15 8 10 10 9 9 6 8 10 13 14 16 16 18 17 13 14 14 17 10 16 17 18 17 13 15 14
25 33 35 48 49 48 43 18 13 7 7 12 14 16 11 11 10 11 14 10 9 3 6 3 6 7 14 21 23 21 18 13 8 9 11 17 23 20 16 8 14 17 14 13
27 32 35 47 51 48 50 20 17 7 8 12 20 17 15 10 13 11 12 12 9 3 3 2 5 6 10 6 4 20 18 14 10 9 10 14 12 4 10 16 10 8 10 11
31 40 35 49 50 48 46 13 17 5 4 3 6 10 13 16 12 8 11 15 12 11 3 5 7 12 15 16 17 5 10 11 15 12 11 11 14 20 5 6 2 7 8 9
35 41 37 52 52 49 46 17 13 8 2 2 4 4 4 4 9 8 2 3 3 2 5 4 7 8 10 11 15 8 9 7 9 13 14 15 13 12 5 2 4 5 5 6
33 42 44 52 51 48 47 9 11 6 3 1 5 6 10 10 11 3 2 1 4 3 3 7 5 6 4 7 6 5 6 10 7 7 4 9 13 2 7 4 2 2 2 9
33 45 55 50 51 50 50 10 11 7 2 6 8 9 14 15 12 9 3 2 4 5 7 3 3 6 5 6 6 11 11 10 4 9 7 10 3 4 5 2 2 3 6 13
45 46 49 48 47 45 47 26 9 8 2 3 3 6 14 19 19 18 18 15 4 4 4 3 2 4 8 6 8 9 5 5 7 6 11 11 4 8 4 7 3 5 9 12
50 48 45 44 42 35 32 22 11 11 3 0 3 12 14 11 16 20 21 16 12 7 4 3 3 4 6 8 9 9 8 11 7 8 8 7 8 1 3 6 7 8 11 12
50 45 43 38 33 28 19 3 10 9 4 0 2 3 8 13 19 15 14 13 9 8 3 3 3 5 4 4 6 9 11 8 14 11 4 9 2 4 5 7 8 10 11 12
47 41 36 33 31 26 5 2 2 18 10 2 3 4 3 1 5 7 4 10 2 4 2 3 2 4 4 2 8 10 15 15 7 1 3 4 5 1 3 5 8 13 13 14
40 37 33 30 27 13 6 4 8 21 6 3 3 3 4 5 3 3 1 2 2 3 3 2 3 3 3 4 11 10 7 6 9 6 6 4 4 2 5 6 8 9 9 9
36 32 29 23 4 3 6 6 15 4 2 3 3 3 1 3 2 2 1 2 3 4 4 4 5 4 5 7 7 4 5 4 8 6 4 3 2 4 5 8 9 9 9 8
39 23 6 2 6 16 15 4 1 4 3 3 3 4 3 4 3 4 3 3 4 4 6 4 3 4 6 3 4 5 6 8 6 4 4 5 4 5 7 9 8 9 10 9
8 3 2 7 21 4 2 3 3 3 3 4 5 11 6 4 3 3 3 2 3 3 4 5 4 2 4 4 6 7 6 9 4 4 3 5 4 6 6 7 6 8 12 9
9 15 9 5 2 2 4 4 5 5 5 7 5 3 3 3 2 2 2 1 2 1 5 3 2 3 7 7 8 8 6 6 4 5 4 5 3 4 6 6 7 10 14 15
7 5 3 2 3 6 5 7 5 5 4 3 3 3 3 3 2 1 2 3 3 2 2 3 3 6 7 7 7 8 5 10 6 8 10 10 6 6 4 7 9 15 16 17
2 3 5 4 5 5 4 2 3 2 2 6 6 3 2 2 4 2 2 3 2 4 4 2 4 6 7 7 8 5 7 7 6 5 6 6 6 7 11 14 17 19 16 15
1 3 4 5 2 2 1 2 2 2 4 4 3 2 2 2 2 3 3 3 4 4 2 3 3 5 6 6 6 7 5 4 4 4 3 3 5 7 7 8 10 12 14 13
1 3 2 3 3 2 1 1 1 2 2 2 2 3 3 3 3 4 4 4 2 3 3 3 4 6 5 5 4 4 5 5 4 5 5 5 6 6 7 6 6 7 9 11
2 1 1 3 2 2 1 2 1 2 3 1 2 2 2 2 3 4 4 4 3 4 4 3 5 5 5 5 4 5 6 6 6 6 7 6 5 7 7 5 4 6 7 8
Wind_Direction
266 239 217 217 201 193 184 196 209 168 162 177 204 225 221 261 250 222 272 292 276 220 245 248 244 266 253 86 338 286 268 291 276 266 278 289 289 278 276 269 281 282 267 261
268 245 217 215 201 190 177 191 131 174 185 204 209 227 225 243 235 227 240 252 250 279 265 262 254 263 277 302 193 312 352 272 270 272 256 237 239 258 258 260 269 262 278 277
269 262 203 207 206 194 186 140 150 168 205 242 212 206 226 217 221 264 253 257 254 239 246 247 256 255 262 189 247 103 360 262 263 268 282 307 296 291 294 296 277 284 267 277
259 251 205 204 199 201 184 202 195 185 192 213 227 225 215 225 202 221 267 234 241 225 239 236 244 249 255 211 194 223 235 258 266 272 280 284 278 275 275 275 282 281 291 285
248 248 205 204 199 201 201 174 175 188 226 194 215 236 234 230 219 186 225 237 234 230 243 248 260 267 255 264 294 225 230 261 266 271 270 274 275 272 266 260 260 264 272 274
250 242 224 200 199 196 214 215 223 216 206 172 190 220 227 250 229 231 220 233 237 244 246 343 351 335 298 277 280 271 271 268 256 266 282 287 278 276 281 282 282 284 283 304
244 233 227 198 199 199 215 214 233 207 216 199 213 227 231 228 230 233 236 236 253 222 68 346 292 273 265 258 253 249 254 258 270 279 280 270 279 270 279 256 265 262 275 283
245 228 227 201 200 203 222 211 228 235 206 202 208 226 242 216 219 238 240 223 217 152 52 355 302 258 249 245 240 238 231 242 261 253 258 277 284 279 288 204 274 242 285 312
239 223 222 204 199 200 215 238 222 263 244 222 194 188 212 216 223 226 239 257 287 268 87 144 244 251 273 255 216 216 220 208 232 254 260 262 269 357 3 322 270 22 353 334
239 222 221 201 199 199 207 234 220 238 257 195 270 191 192 203 206 216 220 210 208 215 145 210 252 254 252 256 256 207 197 198 221 234 248 270 281 295 154 258 340 6 354 326
233 222 218 201 198 197 201 211 205 203 246 348 324 317 234 181 221 221 179 126 78 143 179 226 238 261 255 248 251 237 191 214 214 231 251 266 252 258 254 58 95 15 347 58
226 216 211 191 189 192 195 190 178 190 259 19 7 303 287 292 23 5 5 80 115 147 196 228 264 250 288 274 275 280 202 214 224 205 222 12 326 75 286 3 42 50 50 106
227 200 178 182 184 195 197 186 169 170 228 285 255 243 252 257 247 227 227 206 143 179 231 316 292 272 288 276 273 267 213 250 227 280 269 267 185 189 270 229 286 157 150 135
174 170 174 177 186 195 198 206 192 198 111 266 282 258 234 240 247 239 235 255 224 298 300 276 278 286 317 297 297 300 284 283 235 275 285 297 324 274 213 158 203 188 152 148
169 171 175 181 186 187 183 194 210 204 253 124 295 317 256 224 219 229 227 226 236 243 250 233 242 290 284 278 273 267 283 294 287 276 272 238 272 82 120 174 188 186 155 161
162 164 173 176 179 175 156 193 230 210 178 344 268 292 255 201 218 215 227 221 226 223 191 219 234 263 265 278 282 281 289 335 320 295 34 299 23 288 263 183 191 178 170 165
155 163 169 173 171 160 144 163 124 180 150 147 269 235 173 203 217 204 213 224 207 204 168 205 229 221 199 245 264 273 281 284 246 87 174 234 253 255 156 199 186 161 171 155
154 156 156 155 158 142 149 62 143 157 117 199 251 250 180 157 176 195 352 133 139 164 187 225 209 201 201 248 251 269 307 301 309 316 286 304 310 212 197 175 156 167 149 153
139 141 140 134 115 102 137 136 157 113 119 199 224 252 187 142 142 91 178 173 189 160 201 203 195 192 220 236 256 298 351 324 315 324 328 283 251 218 176 166 163 170 157 158
128 119 80 96 152 135 129 73 241 192 194 221 240 252 224 192 168 184 215 190 193 194 206 154 220 240 236 87 343 309 321 312 310 283 268 248 207 194 180 180 183 174 172 165
94 92 79 119 140 132 134 191 213 175 219 207 232 222 206 190 188 215 229 212 189 215 164 191 201 186 61 17 352 338 332 295 275 247 13 318 227 189 185 183 175 169 156 164
130 115 107 114 114 162 198 197 183 211 229 174 217 158 108 133 142 215 236 282 225 209 160 182 233 89 46 10 352 339 336 318 309 20 1 337 332 187 174 184 172 154 159 164
87 65 99 193 156 211 217 192 201 209 155 176 142 120 112 147 188 206 249 176 210 132 174 212 71 63 28 5 349 336 33 20 25 25 14 10 27 39 122 110 130 135 135 146
78 152 175 223 174 231 219 13 351 355 112 138 147 119 148 138 174 156 216 206 194 194 210 162 60 25 10 7 351 10 50 28 27 22 10 19 47 59 92 124 140 138 132 148
156 203 218 217 259 266 351 322 254 253 113 115 125 150 144 119 148 230 139 182 209 225 90 70 38 33 12 6 3 12 35 17 14 17 63 70 65 81 86 104 127 143 148 157
244 250 250 251 253 175 188 284 250 264 100 118 192 202 157 199 169 177 212 203 164 75 72 58 28 23 18 4 15 24 20 13 41 47 71 88 92 100 107 115 125 144 161 166
252 183 80 310 301 26 64 333 338 300 150 215 230 201 123 141 199 132 22 31 66 67 66 47 43 19 12 5 48 36 40 44 49 62 68 74 80 112 121 127 147 157 175 186